Location: Unspecified
(51.0950°N, 12.9690°E)
Time: 17:26:58
(UTC+00:00)

Cosmos 2360 Rocket - Pass Details

Date: 28 October 2021
Orbit: 832 x 846 km, 71.0° (Epoch: 02 December)

Event Time Altitude Azimuth Distance (km) Brightness Sun altitude
Rises 18:56:43 0° 245° (WSW) 3,389 6.0 -29.8°
Reaches altitude 10° 18:59:28 10° 256° (WSW) 2,460 5.3 -30.2°
Maximum altitude 19:04:23 30° 317° (NW) 1,478 3.9 -30.9°
Enters shadow 19:08:23 14° 11° (NNE) 2,183 4.4 -31.5°
